Location: Be Kena
(6.5667°N, 10.8833°W)
Time: 03:02:22
(UTC+00:00)

Daily predictions for brighter satellites

Satellite Brightness Start Highest point End
(mag) Time Altitude Azimuth Time Altitude Azimuth Time Altitude Azimuth
Ariane H10-3 4.0 03:27:23 35° E 03:27:23 35° E 03:35:46 10° E
CZ-2C R/B 4.0 04:00:21 10° NNE 04:02:44 30° NNE 04:02:44 30° NNE
ATLAS 2AS CENTAUR R/B 2.8 04:13:44 73° SSW 04:14:37 89° SE 04:22:33 10° NNE
Gblst 52 Del rocket 4.5 04:16:54 77° SSE 04:17:15 80° SE 04:24:38 10° NE
Stardust Del rocket 4.5 04:19:30 65° NNW 04:19:30 65° NNW 04:23:54 10° ENE
ISS -0.9 04:24:45 16° E 04:24:45 16° E 04:25:54 10° ENE
Sich 1 4.0 04:24:52 44° NNE 04:24:52 44° NNE 04:27:58 10° NNE
GPS 2-14 Rocket1 4.4 04:27:49 31° ENE 04:27:49 31° ENE 04:29:56 10° ENE
ARIANE 5 DEB (SYLDA) 3.4 04:28:55 41° SSE 04:28:55 41° SSE 04:33:11 10° ESE
Meteor 1-10 Rocket 4.4 04:25:43 10° N 04:31:25 72° E 04:34:08 32° SSE
ALOS 2.3 04:28:13 10° NNE 04:32:30 74° NE 04:32:30 74° NE
Meteor 2-6 Rocket 4.1 04:28:13 10° N 04:33:45 74° WNW 04:33:45 74° WNW
Meteor 1-25 Rocket 4.2 04:37:24 48° S 04:39:09 85° E 04:44:59 10° N
SL-08 ROCKET BODY 4.2 04:38:28 57° SSW 04:39:43 81° W 04:45:33 10° N
IUS-18 SRM-1 4.4 04:38:46 43° W 04:41:24 68° SSW 05:19:06 10° SE
Cosmos 2082 Rocket 3.2 04:43:04 31° NW 04:43:04 31° NW 04:46:58 10° N
GPS 2-15 Rocket1 3.5 04:44:45 52° NW 04:45:15 55° NNW 04:50:05 10° ENE
Meteor 1-27 Rocket 4.3 04:41:57 10° N 04:47:19 55° E 04:52:43 10° SSE
FENGYUN 3A 3.7 04:42:33 10° N 04:47:52 59° WNW 04:48:29 55° WSW
SL-08 R/B 4.4 04:46:00 41° SSW 04:48:18 74° W 04:54:35 10° N
Cosmos 1633 Rocket 3.4 04:50:51 33° SSE 04:52:40 64° E 04:57:01 10° NNE
METEOR-M 4.0 04:49:24 10° N 04:54:44 81° WNW 04:56:58 36° SSW
SWIFT 3.1 04:55:22 38° SSE 04:55:27 38° SSE 04:59:20 10° E
BREEZE-M DEB (TANK) 3.6 04:53:48 10° NNW 04:56:22 35° NE 04:58:45 10° ESE
ARIANE 5 DEB (SYLDA) 4.0 04:56:33 34° SSW 04:57:58 41° SSE 05:10:01 10° E
GPS 2-18 Rocket1 3.9 05:01:55 37° SSE 05:01:55 37° SSE 05:04:45 10° SE
Cosmos 1602 4.0 05:03:09 47° WNW 05:03:09 47° WNW 05:06:29 10° N
Skynet4D Del rocket 3.8 05:02:37 38° WSW 05:05:07 85° SSE 05:11:56 10° ENE
Cosmos 1484 Rocket 2.8 05:02:03 10° N 05:05:39 51° WNW 05:05:39 51° WNW
RESURS DK-1 2.2 05:04:46 45° SSW 05:06:00 88° WNW 05:10:08 10° NNE
SL-08 R/B 4.5 05:19:44 23° W 05:19:44 23° W 05:22:30 10° NW
Cosmos 44 Rocket 3.3 05:15:50 23° SSW 05:18:57 88° WNW 05:24:02 10° NNE
Delta 202 4.3 05:16:19 21° WNW 05:19:36 47° NNW 05:25:40 10° ENE
DELTA 4 R/B 2.0 05:21:20 23° SSE 05:21:20 23° SSE 05:22:40 10° E
Meteor 1-31 Rocket 3.1 05:17:44 10° NNE 05:21:31 65° E 05:25:16 10° S
MOS 1 Rocket 3.9 05:17:34 10° SSE 05:21:50 53° ENE 05:25:59 10° N
Meteor 2-17 Rocket 4.4 05:17:29 10° S 05:23:39 82° W 05:29:47 10° N
H-2A R/B 3.4 05:29:04 10° NNE 05:32:50 55° E 05:36:33 10° S
Cosmos 1666 2.7 05:29:59 10° S 05:33:41 79° E 05:37:22 10° N
Ariane H10 2.0 05:33:39 32° WSW 05:34:26 59° S 05:38:02 10° E
USA 281 4.1 05:32:04 10° SSW 05:37:11 24° WSW 05:42:18 10° WNW
Cosmos 1656 3.9 05:35:15 10° NNW 05:40:37 46° WSW 05:45:56 10° S
GPS 2-17 Rocket1 3.1 05:40:00 10° WNW 05:44:35 87° NNE 05:49:19 10° ESE
Cosmos 1470 Rocket 3.9 05:41:01 10° SSW 05:45:17 45° W 05:49:34 10° NNW
CZ-4B R/B 4.1 05:45:00 10° N 05:48:24 39° WNW 05:51:51 10° SSW
Cosmos 1709 Rocket 4.1 05:44:08 10° SSW 05:50:05 55° W 05:56:01 10° N
Cosmos 1697 Rocket 2.7 05:47:10 10° NNW 05:52:49 85° WSW 05:58:28 10° SSE
Landsat 5 3.6 05:49:43 10° SSE 05:53:36 69° ENE 05:57:22 10° N
Cosmos 1933 Rocket 3.6 05:51:29 10° SSW 05:55:43 57° W 05:59:59 10° N
ISS -1.4 05:58:31 10° WNW 05:59:51 12° NW 06:01:12 10° NNW
Meteor 1-5 Rocket 4.4 05:54:40 10° SSW 05:59:52 47° W 06:04:57 10° N
deb Ariane 4.1 05:57:30 10° WSW 06:00:37 46° S 06:11:25 10° ESE
Envisat 3.0 05:57:56 10° N 06:02:57 69° WNW 06:08:00 10° SSW
ADEOS 4.3 06:04:13 10° NNW 06:08:53 34° WNW 06:13:33 10° SW
BLOCK DM-SL R/B 4.0 06:07:24 10° W 06:18:08 50° S 06:22:26 10° ESE
